Weather in Morondava

Madagascar     20°17′34″S   44°16′46″E
temp.,
°C
wind,
m/s
gust,
m/s
humid.,
%
clouds,
%
prec.,
mm/h
press.,
hPa
HPBL,
m
29 june, wed
wed2900:00+21ese913490 0.0 1022530
03:00+19ese812530 0.0 1022452
06:00+18ese711600 0.0 1023313
09:00+20e56500 0.0 1024352
12:00+23nw32440 0.0 1023413
15:00+23w55610 0.0 1021385
18:00+23w56660 0.0 1021379
21:00+23sw56710 0.0 1022614
30 june, thu
thu3000:00+21s57690 0.0 1022300
03:00+19se45642 0.0 1021193
06:00+17e44730 0.0 1022201
09:00+20ne34670 0.0 1023302
12:00+22nnw33600 0.0 1022342
15:00+23w55605 0.0 1021343
18:00+23wsw67635 0.0 1021465
21:00+23sw776697 0.0 1022595
1 july, fri
fri100:00+21ssw577720 0.0 1022281
03:00+20sse45735 0.0 1021209
06:00+18ese44745 0.0 1022187
09:00+20e45710 0.0 1024311
12:00+23nnw33580 0.0 1022348
15:00+23wnw55640 0.0 1020241
18:00+23wsw45657 0.0 1021280
21:00+22s68710 0.0 1022434
2 july, sat
sat200:00+21se58610 0.0 1021237
03:00+19e57693 0.0 1021233
06:00+19e56735 0.0 1022216
09:00+22ene56575 0.0 1024321
12:00+24nnw33530 0.0 1023396
15:00+24wnw55640 0.0 1021288
18:00+24w567336 0.0 1021352
21:00+23ssw56770 0.0 1022513
3 july, sun
sun300:00+21sse57650 0.0 1022195
03:00+19e56670 0.0 1022216
06:00+19ene68740 0.0 1023285
09:00+21ene55590 0.0 1025306
12:00+23nw32660 0.0 1023342
15:00+23wnw54730 0.0 1020265
18:00+24w66750 0.0 1020373
21:00+24sw56710 0.0 1022458